This demonstration page uses our WeatherBlox Daily Observations layout. Learn more.

Left ArrowRight Arrow

39.08367, -84.50855

Hourly Observations for July 19, 2015

Temp ( °F °C ) Dew Point ( °F °C ) Humidity (%) Winds ( mph kmh ) Pressure ( in mb ) Visibility ( mi km ) Precip ( " mm )
12:06 am 00:06 Mostly Cloudy with Strong Thunderstorms 73 23 72 22 94 94 NNE 12 19 29.97 1015 2 3 0.00 0.00
12:16 am 00:16 Cloudy with Strong Thunderstorms 72 22 72 22 100 100 NNE 7 11 30.00 1016 1 1 0.00 0.00
12:37 am 00:37 Mostly Cloudy with Strong Thunderstorms 71 21.7 71 21.7 100 100 SSE 13 20 30.00 1016 1 1 1.64 41.66
12:45 am 00:45 Cloudy with Thunderstorms 71 21.7 71 21.7 100 100 SSW 13 20 30.00 1016 2 3 1.68 42.67
12:53 am 00:53 Cloudy with Thunderstorms 71 21.7 71 21.7 100 100 S 13 20 30.01 1016 5 8 1.71 43.43
1:10 am 01:10 Mostly Cloudy with Nearby Thunderstorms 73 23 72 22 94 94 Calm 29.97 1015 6 10 0.00 0.00
1:25 am 01:25 Mostly Cloudy 72 22.2 72 22.2 100 100 SW 8 13 29.94 1014 10 16 0.03 0.76
1:53 am 01:53 Partly Cloudy 72 22.2 71 21.7 97 97 SSW 5 7 29.96 1015 10 16 0.03 0.76
2:53 am 02:53 Mostly Clear 71 21.7 70 21.1 96 96 SSW 6 9 29.94 1014 10 16 0.00 0.00
3:53 am 03:53 Clear 71 21.7 70 21.1 96 96 SW 5 7 29.92 1013 10 16 0.00 0.00
4:53 am 04:53 Partly Cloudy 70 21.1 70 21.1 100 100 SSW 3 6 29.91 1013 7 11 0.00 0.00
5:53 am 05:53 Clear with Mist and Fog 70 21.1 70 21.1 100 100 Calm 29.92 1013 4 6 0.00 0.00
6:06 am 06:06 Clear with Mist and Fog 70 21 70 21 100 100 Calm 29.91 1013 2 3 0.00 0.00
6:42 am 06:42 Sunny with Fog 70 21 70 21 100 100 Calm 29.91 1013 1 1 0.00 0.00
6:53 am 06:53 Sunny with Mist and Fog 69 20.6 69 20.6 100 100 Calm 29.92 1013 5 8 0.00 0.00
7:53 am 07:53 Sunny 73 22.8 72 22.2 96 96 Calm 29.94 1014 9 14 0.00 0.00
8:53 am 08:53 Sunny 77 25 73 22.8 88 88 S 7 11 29.93 1014 10 16 0.00 0.00
9:53 am 09:53 Sunny 79 26.1 75 23.9 88 88 S 6 9 29.94 1014 10 16 0.00 0.00
10:53 am 10:53 Sunny 81 27.2 76 24.4 85 85 S 6 9 29.93 1014 10 16 0.00 0.00
11:53 am 11:53 Sunny 84 28.9 77 25 80 80 S 6 9 29.93 1014 10 16 0.00 0.00
12:53 pm 12:53 Mostly Sunny 87 30.6 77 25 72 72 WSW 8 13 29.94 1014 10 16 0.00 0.00
1:17 pm 13:17 Partly Cloudy with Thunderstorms 87 30.6 78 25.6 75 75 WSW 8 13 29.88 1012 10 16 0.00 0.00
1:46 pm 13:46 Partly Cloudy with Thunderstorms 79 26 72 22 79 79 SSW 10 17 29.91 1013 2 3 0.00 0.00
1:48 pm 13:48 Cloudy with Thunderstorms 79 26 72 22 79 79 SSW 9 15 29.91 1013 10 16 0.00 0.00
1:53 pm 13:53 Cloudy with Thunderstorms 77 25 72 22.2 85 85 S 10 17 29.93 1014 10 16 0.03 0.76
2:30 pm 14:30 Mostly Cloudy with Nearby Thunderstorms 79 26 73 23 84 84 S 6 9 29.91 1013 10 16 0.00 0.00
2:44 pm 14:44 Cloudy 79 26 73 23 84 84 SSE 7 11 29.91 1013 10 16 0.00 0.00
2:53 pm 14:53 Mostly Cloudy 80 26.7 76 24.4 87 87 VRB 5 7 29.93 1013 10 16 0.00 0.03
3:53 pm 15:53 Mostly Cloudy 86 30 78 25.6 77 77 S 5 7 29.88 1012 10 16 0.00 0.00
4:53 pm 16:53 Partly Cloudy 83 28.3 77 25 82 82 E 7 11 29.88 1012 10 16 0.00 0.00
5:53 pm 17:53 Mostly Sunny 83 28.3 75 23.9 77 77 SSE 7 11 29.88 1012 10 16 0.00 0.00
6:53 pm 18:53 Mostly Sunny 81 27.2 75 23.9 82 82 S 6 9 29.86 1011 10 16 0.00 0.00
7:53 pm 19:53 Cloudy with Thunderstorms 78 25.6 76 24.4 93 93 NNE 9 15 29.86 1011 5 8 0.09 2.29
8:07 pm 20:07 Cloudy 77 25 74 23.3 90 90 N 9 15 29.88 1012 10 16 0.00 0.03
8:19 pm 20:19 Cloudy 77 25 74 23.3 90 90 NE 5 7 29.88 1012 10 16 0.00 0.03
8:53 pm 20:53 Partly Cloudy 75 23.9 73 22.8 94 94 Calm 29.90 1013 10 16 0.00 0.03
9:53 pm 21:53 Mostly Clear 74 23.3 73 22.8 97 97 NNE 6 9 29.90 1013 10 16 0.00 0.00
10:53 pm 22:53 Clear with Mist and Fog 73 22.8 73 22.8 100 100 Calm 29.91 1013 6 10 0.00 0.00
11:53 pm 23:53 Mostly Clear with Mist and Fog 72 22.2 72 22.2 100 100 NE 3 6 29.91 1013 6 10 0.00 0.00

Powered by AerisWeather